Weather History for Key West NAF, FL

Change the Weather History Date:

Tuesday, October 1, 2013

  Actual Average Record
Temperature  
Mean Temperature 84 °F -  
Max Temperature 90 °F 86 °F 92 °F (1958)
Min Temperature 78 °F 77 °F 70 °F (1963)
Cooling Degree Days 18    
Growing Degree Days 34 (Base 50)    
Moisture  
Dew Point 75 °F    
Average Humidity 76    
Maximum Humidity 89    
Minimum Humidity 63    
Precipitation  
Precipitation 0.24 in - - ()
Sea Level Pressure  
Sea Level Pressure 29.96 in    
Wind  
Wind Speed 10 mph (ESE)    
Max Wind Speed 16 mph    
Max Gust Speed 23 mph    
Visibility 10 miles    
Events Rain , Thunderstorm    
Averages and records for this station are not official NWS values.
T = Trace of Precipitation, MM = Missing Value Source: NWS Daily Summary

Daily Weather History Graph

Daily Weather History Graph

Search for Another Location

Airport:

Trip Planner

Search our weather history database for the weather conditions in past years. The results will help you decide how hot, cold, wet, or windy it might be!

Date:

Astronomy

Oct. 01, 2013 Rise Set
Actual Time 7:18 AM EDT 7:13 PM EDT
Civil Twilight 6:56 AM EDT 7:36 PM EDT
Nautical Twilight 6:29 AM EDT 8:02 PM EDT
Astronomical Twilight 6:03 AM EDT 8:28 PM EDT
Moon 4:10 AM EDT (10/1) 5:01 PM EDT (10/1)
Length of Visible Light 12h 40m
Length of Day
11h 54m
Waning Crescent, 12% of the Moon is Illuminated
Oct 1
Waning Crescent
Oct 4
New
Oct 11
First Quarter
Oct 18
Full
Oct 26
Last Quarter

Hourly Weather History & Observations

Time (EDT) Temp. Heat Index Dew Point Humidity Pressure Visibility Wind Dir Wind Speed Gust Speed Precip Events Conditions
12:53 AM 80.1 °F 83.8 °F 72.0 °F 76% 29.97 in 10.0 mi NE 5.8 mph - N/A   Mostly Cloudy
1:53 AM 80.1 °F 83.2 °F 70.0 °F 71% 29.96 in 10.0 mi SE 16.1 mph - N/A   Scattered Clouds
2:53 AM 80.1 °F 84.5 °F 73.9 °F 81% 29.95 in 7.0 mi South 6.9 mph - 0.00 in Rain Light Rain
3:45 AM 80.6 °F 86.2 °F 75.2 °F 84% 29.93 in 10.0 mi East 11.5 mph - 0.09 in   Overcast
3:53 AM 79.0 °F - 73.9 °F 84% 29.93 in 10.0 mi East 10.4 mph - 0.09 in   Mostly Cloudy
4:53 AM 81.0 °F 86.7 °F 75.0 °F 82% 29.93 in 10.0 mi ESE 10.4 mph - N/A   Mostly Cloudy
5:53 AM 81.0 °F 86.7 °F 75.0 °F 82% 29.94 in 10.0 mi ESE 8.1 mph - N/A   Clear
6:09 AM 80.6 °F 85.4 °F 73.4 °F 79% 29.94 in 10.0 mi SE 5.8 mph - N/A   Mostly Cloudy
6:53 AM 79.0 °F - 73.9 °F 84% 29.95 in 10.0 mi ESE 4.6 mph - N/A   Mostly Cloudy
7:53 AM 81.0 °F 86.2 °F 73.9 °F 79% 29.96 in 10.0 mi East 5.8 mph - N/A   Scattered Clouds
8:53 AM 84.0 °F 92.6 °F 75.9 °F 76% 29.97 in 10.0 mi East 8.1 mph - N/A   Scattered Clouds
9:53 AM 84.9 °F 93.3 °F 75.0 °F 72% 29.98 in 10.0 mi East 11.5 mph - N/A   Partly Cloudy
10:32 AM 84.2 °F 92.3 °F 75.2 °F 74% 29.99 in 10.0 mi ENE 9.2 mph - 0.00 in Rain Light Rain
10:42 AM 87.8 °F 97.6 °F 75.2 °F 66% 29.99 in 10.0 mi East 13.8 mph - 0.00 in   Scattered Clouds
10:53 AM 87.1 °F 96.3 °F 75.0 °F 67% 29.99 in 10.0 mi East 12.7 mph - 0.00 in   Scattered Clouds
11:53 AM 89.1 °F 100.2 °F 75.9 °F 65% 29.99 in 10.0 mi East 12.7 mph - N/A   Scattered Clouds
12:53 PM 89.1 °F 100.2 °F 75.9 °F 65% 29.99 in 10.0 mi East 12.7 mph - N/A   Scattered Clouds
1:53 PM 89.1 °F 100.2 °F 75.9 °F 65% 29.96 in 10.0 mi East 15.0 mph - N/A   Scattered Clouds
2:53 PM 89.1 °F 99.1 °F 75.0 °F 63% 29.94 in 10.0 mi East 16.1 mph - N/A   Scattered Clouds
3:53 PM 88.0 °F 97.5 °F 75.0 °F 65% 29.93 in 10.0 mi East 12.7 mph - N/A   Scattered Clouds
4:53 PM 88.0 °F 97.5 °F 75.0 °F 65% 29.92 in 10.0 mi ESE 15.0 mph - N/A   Scattered Clouds
5:53 PM 84.9 °F 94.1 °F 75.9 °F 74% 29.93 in 10.0 mi ESE 13.8 mph - N/A   Scattered Clouds
6:53 PM 82.9 °F 90.8 °F 75.9 °F 79% 29.94 in 10.0 mi East 11.5 mph - N/A   Scattered Clouds
7:53 PM 82.9 °F 88.8 °F 73.0 °F 72% 29.95 in 10.0 mi East 13.8 mph - N/A   Scattered Clouds
8:53 PM 82.9 °F 90.2 °F 75.0 °F 77% 29.96 in 10.0 mi East 13.8 mph - N/A   Scattered Clouds
9:53 PM 84.0 °F 92.6 °F 75.9 °F 76% 29.97 in 10.0 mi East 13.8 mph - N/A   Scattered Clouds
10:20 PM 80.6 °F 85.4 °F 73.4 °F 79% 29.98 in 2.0 mi NE 10.4 mph 23.0 mph 0.14 in Rain Heavy Rain
10:31 PM 80.6 °F 86.2 °F 75.2 °F 84% 29.99 in 10.0 mi SSE 11.5 mph - 0.14 in   Mostly Cloudy
10:53 PM 79.0 °F - 75.0 °F 88% 29.98 in 10.0 mi South 8.1 mph - 0.14 in Rain Light Rain
11:12 PM 80.6 °F 86.2 °F 75.2 °F 84% 29.99 in 7.0 mi SSE 6.9 mph - 0.01 in Rain , Thunderstorm Light Thunderstorms and Rain
11:43 PM 78.8 °F - 75.2 °F 89% 30.00 in 10.0 mi SSE 5.8 mph - 0.01 in   Mostly Cloudy
11:53 PM 79.0 °F - 75.0 °F 88% 30.01 in 10.0 mi East 3.5 mph - 0.01 in   Overcast